Tracking 28790 objects as of 19-Apr-2024
HD Live streaming from Space Station
objects crossing your sky now

COSMOS 2251 DEB

Track COSMOS 2251 DEB now!
10-day predictions


NORAD ID: 37327
Int'l Code: 1993-036BKT
Perigee: 652.8 km
Apogee: 682.6 km
Inclination: 74.0 °
Period: 97.9 minutes
Semi major axis: 7038 km
RCS: 0.0113 m2 (small)
Launch date: June 16, 1993
Source: Commonwealth of Independent States (former USSR) (CIS)
Launch site: PLESETSK MISSILE AND SPACE COMPLEX (PKMTR)

Note: This is SATELLITE DEBRIS
Your satellite tracking list
Your tracking list is empty




NASA's NSSDC Master Catalog

Two Line Element Set (TLE):
1 37327U 93036BKT 24102.69663089  .00016774  00000-0  27754-2 0  9991
2 37327  74.0209  97.4626 0021146 329.9715  30.0242 14.70160409571231
Source of the keplerian elements: AFSPC